Custer, SD

2:11 AM MST on January 23, 2018 (GMT -0700)
Custer County

Weather History for KCUT - May, 2013

Change the Weather History Date:

Saturday, May 25, 2013

  Actual Average Record
Temperature  
Mean Temperature 59 °F 51 °F  
Max Temperature 72 °F 63 °F 88 °F (1972)
Min Temperature 45 °F 39 °F 24 °F (1984)
Degree Days  
Heating Degree Days 6 14  
Month to date heating degree days 394 439  
Since 1 July heating degree days 7998 8089  
Cooling Degree Days 0 0  
Month to date cooling degree days 2 0  
Year to date cooling degree days 2 0  
Growing Degree Days 8 (Base 50)    
Moisture  
Dew Point 50 °F    
Average Humidity 70    
Maximum Humidity 93    
Minimum Humidity 47    
Precipitation  
Precipitation 0.00 in 0.10 in 2.41 in (1960)
Month to date precipitation 0.87 2.46  
Year to date precipitation 6.17 6.45  
Sea Level Pressure  
Sea Level Pressure 29.87 in    
Wind  
Wind Speed 6 mph (SE)    
Max Wind Speed 16 mph    
Max Gust Speed 24 mph    
Visibility 10 miles    
Events      
T = Trace of Precipitation, MM = Missing Value Source: NWS Daily Summary

Daily Weather History Graph

Daily Weather History Graph

Search for Another Location

Airport or City:

Trip Planner

Search our weather history database for the weather conditions in past years. The results will help you decide how hot, cold, wet, or windy it might be!

Date:

Astronomy

May. 25, 2013 Rise Set
Actual Time 5:19 AM MDT 8:23 PM MDT
Civil Twilight 4:45 AM MDT 8:58 PM MDT
Nautical Twilight 4:01 AM MDT 9:42 PM MDT
Astronomical Twilight 3:08 AM MDT 10:35 PM MDT
Moon 9:13 PM MDT (5/25) 5:49 AM MDT (5/25)
Length of Visible Light 16h 12m
Length of Day
15h 03m
Waxing Gibbous, 99% of the Moon is Illuminated
May 25
Waxing Gibbous
May 31
Last Quarter
Jun 8
New
Jun 16
First Quarter
Jun 23
Full

Hourly Weather History & Observations

Time (MDT) Temp. Dew Point Humidity Pressure Visibility Wind Dir Wind Speed Gust Speed Precip Events Conditions
12:53 AM 48.0 °F 45.0 °F 89% 29.88 in 10.0 mi North 3.5 mph - N/A   Clear
1:53 AM 48.9 °F 45.0 °F 86% 29.87 in 10.0 mi NW 4.6 mph - N/A   Clear
2:53 AM 48.0 °F 43.0 °F 83% 29.87 in 10.0 mi Calm Calm - N/A   Clear
3:53 AM 46.9 °F 44.1 °F 90% 29.89 in 10.0 mi Calm Calm - N/A   Clear
4:53 AM 45.0 °F 43.0 °F 93% 29.90 in 10.0 mi Calm Calm - N/A   Clear
5:53 AM 46.0 °F 44.1 °F 93% 29.91 in 10.0 mi Calm Calm - N/A   Mostly Cloudy
6:53 AM 55.0 °F 51.1 °F 86% 29.89 in 10.0 mi Calm Calm - N/A   Overcast
7:26 AM 57.2 °F 51.8 °F 82% 30.06 in 10.0 mi Calm Calm - N/A   Overcast
7:53 AM 57.0 °F 52.0 °F 83% 29.93 in 10.0 mi SSW 6.9 mph - N/A   Overcast
8:51 AM 57.2 °F 51.8 °F 82% 30.07 in 10.0 mi South 6.9 mph - N/A   Overcast
8:53 AM 57.9 °F 52.0 °F 81% 29.94 in 10.0 mi South 6.9 mph - N/A   Overcast
9:53 AM 61.0 °F 51.1 °F 70% 29.92 in 10.0 mi South 9.2 mph 17.3 mph N/A   Mostly Cloudy
10:35 AM 64.4 °F 51.8 °F 64% 30.04 in 10.0 mi South 9.2 mph 17.3 mph N/A   Scattered Clouds
10:53 AM 64.9 °F 50.0 °F 58% 29.90 in 10.0 mi South 9.2 mph 19.6 mph N/A   Clear
11:53 AM 66.9 °F 50.0 °F 54% 29.88 in 10.0 mi South 10.4 mph 20.7 mph N/A   Clear
12:53 PM 69.1 °F 51.1 °F 53% 29.86 in 10.0 mi SSW 10.4 mph 19.6 mph N/A   Clear
1:53 PM 71.1 °F 51.1 °F 49% 29.85 in 10.0 mi SE 10.4 mph 18.4 mph N/A   Partly Cloudy
2:53 PM 70.0 °F 52.0 °F 53% 29.84 in 10.0 mi SE 10.4 mph 20.7 mph N/A   Partly Cloudy
3:53 PM 71.1 °F 51.1 °F 49% 29.83 in 10.0 mi ESE 9.2 mph - N/A   Partly Cloudy
4:53 PM 69.1 °F 51.1 °F 53% 29.82 in 10.0 mi ESE 10.4 mph - N/A   Clear
5:53 PM 71.1 °F 50.0 °F 47% 29.78 in 10.0 mi SE 6.9 mph - N/A   Clear
6:53 PM 69.1 °F 50.0 °F 51% 29.76 in 10.0 mi ESE 8.1 mph - N/A   Clear
7:53 PM 66.0 °F 51.1 °F 59% 29.78 in 10.0 mi East 5.8 mph - N/A   Partly Cloudy
8:53 PM 64.0 °F 50.0 °F 60% 29.79 in 10.0 mi East 8.1 mph - N/A   Clear
9:53 PM 62.1 °F 52.0 °F 70% 29.80 in 10.0 mi East 5.8 mph - N/A   Clear
10:53 PM 59.0 °F 52.0 °F 78% 29.79 in 10.0 mi ENE 5.8 mph - N/A   Clear
11:53 PM 57.0 °F 52.0 °F 83% 29.77 in 10.0 mi Calm Calm - N/A   Clear